N6OIM Weather Reports


Display with metric or nautical units.
time (UTC)temp
F
wind
direction
speed
MPH
gust
MPH
rain 1hr
in
rain 24hr
in
rain mn
in
humidity
%
barometer
mb
20210927173407 68 200 3.0 10.0 0.00 0.00 0.00 66 1016.1
20210927171411 66 88 6.0 11.0 0.00 0.00 0.00 70 1016.2
20210927162911 62 119 5.0 9.0 0.00 0.00 0.00 76 1016.1
20210927162357 62 98 4.0 9.0 0.00 0.00 0.00 78 1016.1
20210927161843 61 109 4.0 6.0 0.00 0.00 0.00 79 1016.1
20210927161328 61 106 2.0 6.0 0.00 0.00 0.00 79 1016.1
20210927155909 61 108 3.0 7.0 0.00 0.00 0.00 81 1016.0
20210927155359 60 132 3.0 7.0 0.00 0.00 0.00 81 1016.0
20210927154846 60 122 3.0 6.0 0.00 0.00 0.00 81 1015.9
20210927154351 60 137 1.0 9.0 0.00 0.00 0.00 82 1015.9
20210927153828 60 163 3.0 9.0 0.00 0.00 0.00 82 1015.9
20210927153316 60 110 4.0 7.0 0.00 0.00 0.00 82 1015.8
20210927152824 60 146 2.0 7.0 0.00 0.00 0.00 82 1015.9
20210927152317 60 115 4.0 6.0 0.00 0.00 0.00 83 1015.8
20210927145357 59 117 1.0 4.0 0.00 0.00 0.00 83 1015.6
20210927144835 59 186 2.0 4.0 0.00 0.00 0.00 83 1015.6
20210927144347 59 117 1.0 4.0 0.00 0.00 0.00 84 1015.5
20210927143829 58 128 3.0 3.0 0.00 0.00 0.00 84 1015.4
20210927143324 58 148 3.0 5.0 0.00 0.00 0.00 84 1015.4
20210927142911 58 92 0.0 5.0 0.00 0.00 0.00 84 1015.4
20210927141913 58 111 1.0 6.0 0.00 0.00 0.00 84 1015.4
20210927135914 58 148 1.0 6.0 0.00 0.00 0.00 85 1015.2
20210927134906 58 114 2.0 7.0 0.00 0.00 0.00 85 1015.1
20210927133416 57 123 1.0 4.0 0.00 0.00 0.00 85 1015.1
20210927131900 56 114 4.0 5.0 0.00 0.00 0.00 85 1015.0
20210927131400 56 108 2.0 4.0 0.00 0.00 0.00 85 1014.9
20210927130849 56 86 2.0 7.0 0.00 0.00 0.00 85 1014.8
20210927130352 56 115 3.0 7.0 0.00 0.00 0.00 85 1014.8
20210927125821 56 114 2.0 4.0 0.00 0.00 0.00 85 1014.8
20210927124411 56 105 4.0 5.0 0.00 0.00 0.00 84 1014.7
20210927123844 56 103 3.0 5.0 0.00 0.00 0.00 84 1014.6
20210927123334 56 119 4.0 5.0 0.00 0.00 0.00 84 1014.6
20210927122818 56 114 3.0 6.0 0.00 0.00 0.00 84 1014.5
20210927122411 56 101 2.0 6.0 0.00 0.00 0.00 84 1014.5
20210927121902 56 96 3.0 6.0 0.00 0.00 0.00 84 1014.5
20210927121347 56 134 4.0 6.0 0.00 0.00 0.00 84 1014.5
20210927120830 56 119 0.0 5.0 0.00 0.00 0.00 84 1014.5
20210927120332 56 100 2.0 5.0 0.00 0.00 0.00 84 1014.5
20210927115833 56 113 2.0 10.0 0.00 0.00 0.00 84 1014.5
20210927115320 56 105 4.0 10.0 0.00 0.00 0.00 84 1014.5
20210927114907 56 133 3.0 6.0 0.00 0.00 0.00 83 1014.5
20210927114411 56 96 4.0 6.0 0.00 0.00 0.00 83 1014.5
20210927113852 56 109 4.0 6.0 0.00 0.00 0.00 83 1014.6
20210927113347 56 111 2.0 7.0 0.00 0.00 0.00 83 1014.6
20210927112836 56 107 3.0 7.0 0.00 0.00 0.00 83 1014.7
20210927112321 56 136 2.0 5.0 0.00 0.00 0.00 83 1014.7
20210927111823 56 128 2.0 5.0 0.00 0.00 0.00 83 1014.7
20210927111322 56 114 4.0 5.0 0.00 0.00 0.00 83 1014.7
20210927110832 56 117 2.0 5.0 0.00 0.00 0.00 83 1014.7
20210927110331 56 103 3.0 5.0 0.00 0.00 0.00 83 1014.7
20210927104912 56 109 0.0 5.0 0.00 0.00 0.00 82 1014.8
20210927103414 56 111 1.0 4.0 0.00 0.00 0.00 82 1014.9
20210927102909 56 118 1.0 3.0 0.00 0.00 0.00 82 1014.9
20210927102355 56 112 1.0 3.0 0.00 0.00 0.00 82 1014.9
20210927101838 56 115 2.0 3.0 0.00 0.00 0.00 82 1014.8
20210927101335 56 140 0.0 3.0 0.00 0.00 0.00 82 1014.9
20210927100820 56 121 2.0 2.0 0.00 0.00 0.00 81 1015.0
20210927100414 56 132 0.0 3.0 0.00 0.00 0.00 81 1014.9
20210927095859 56 103 2.0 3.0 0.00 0.00 0.00 81 1015.0
20210927095352 56 132 1.0 4.0 0.00 0.00 0.00 80 1015.0
20210927093406 57 127 0.0 2.0 0.00 0.00 0.00 78 1015.3
20210927092854 57 130 1.0 4.0 0.00 0.00 0.00 78 1015.4
20210927092356 57 187 0.0 4.0 0.00 0.00 0.00 78 1015.3
20210927091843 57 142 0.0 1.0 0.00 0.00 0.00 78 1015.2
20210927091337 57 144 0.0 2.0 0.00 0.00 0.00 78 1015.1
20210927090843 57 141 1.0 3.0 0.00 0.00 0.00 79 1015.2
20210927090336 57 141 0.0 4.0 0.00 0.00 0.00 79 1015.2
20210927085827 57 142 1.0 4.0 0.00 0.00 0.00 79 1015.2
20210927085324 57 159 3.0 4.0 0.00 0.00 0.00 79 1015.2
20210927084820 58 180 1.0 11.0 0.00 0.00 0.00 79 1015.1
20210927084319 58 168 2.0 11.0 0.00 0.00 0.00 78 1015.1
20210927083816 58 130 1.0 5.0 0.00 0.00 0.00 78 1015.1
20210927083317 58 157 1.0 6.0 0.00 0.00 0.00 78 1015.1
20210927082835 58 148 2.0 6.0 0.00 0.00 0.00 78 1015.1
20210927082333 58 153 2.0 5.0 0.00 0.00 0.00 78 1015.1
20210927081831 58 157 1.0 3.0 0.00 0.00 0.00 78 1015.2
20210927081334 58 171 0.0 5.0 0.00 0.00 0.00 77 1015.1
20210927080825 58 140 1.0 5.0 0.00 0.00 0.00 77 1015.1
20210927080322 58 134 0.0 5.0 0.00 0.00 0.00 77 1015.2
20210927075821 58 146 1.0 4.0 0.00 0.00 0.00 77 1015.3
20210927075319 58 146 0.0 6.0 0.00 0.00 0.00 77 1015.2
20210927074817 58 134 3.0 7.0 0.00 0.00 0.00 77 1015.2
20210927074316 58 119 1.0 4.0 0.00 0.00 0.00 76 1015.1
20210927073834 58 167 1.0 4.0 0.00 0.00 0.00 76 1015.1
20210927073334 58 110 0.0 4.0 0.00 0.00 0.00 76 1015.1
20210927072830 58 194 1.0 4.0 0.00 0.00 0.00 76 1015.1
20210927072327 58 129 1.0 4.0 0.00 0.00 0.00 76 1015.0
20210927071826 58 123 1.0 5.0 0.00 0.00 0.00 76 1014.9
20210927071322 58 120 1.0 5.0 0.00 0.00 0.00 76 1014.8
20210927070820 58 143 2.0 4.0 0.00 0.00 0.00 76 1014.8
20210927070320 58 122 2.0 5.0 0.00 0.00 0.00 76 1014.8
20210927065839 58 111 2.0 4.0 0.00 0.00 0.00 75 1014.8
20210927065327 58 103 1.0 2.0 0.00 0.00 0.00 75 1014.8
20210927064834 58 138 0.0 4.0 0.00 0.00 0.00 75 1014.8
20210927064318 58 163 3.0 4.0 0.00 0.00 0.00 75 1014.8
20210927063819 58 132 1.0 3.0 0.00 0.00 0.00 75 1014.8
20210927063415 59 139 1.0 5.0 0.00 0.00 0.00 74 1014.8
20210927062913 59 119 2.0 5.0 0.00 0.00 0.00 74 1014.8
20210927062409 59 170 3.0 5.0 0.00 0.00 0.00 74 1014.7
20210927061904 59 107 2.0 4.0 0.00 0.00 0.00 74 1014.7
20210927061411 59 105 2.0 6.0 0.00 0.00 0.00 74 1014.8
20210927060911 59 156 2.0 6.0 0.00 0.00 0.00 74 1014.7
20210927060344 59 130 3.0 6.0 0.00 0.00 0.00 73 1014.5
20210927055830 59 156 2.0 4.0 0.00 0.00 0.00 73 1014.6
20210927055340 60 137 2.0 6.0 0.00 0.00 0.00 73 1014.6
20210927054818 60 148 3.0 6.0 0.00 0.00 0.00 72 1014.7
20210927052911 60 111 2.0 6.0 0.00 0.00 0.00 72 1014.5
20210927050848 61 167 1.0 5.0 0.00 0.00 0.00 70 1014.4
20210927050346 61 137 2.0 5.0 0.00 0.00 0.00 70 1014.4
20210927045841 62 158 3.0 5.0 0.00 0.00 0.00 69 1014.4
20210927045318 62 153 3.0 5.0 0.00 0.00 0.00 68 1014.4
20210927044911 62 142 1.0 6.0 0.00 0.00 0.00 67 1014.4
20210927044410 63 180 3.0 6.0 0.00 0.00 0.00 67 1014.3
20210927042417 64 146 2.0 6.0 0.00 0.00 0.00 64 1014.1
20210927041913 64 165 2.0 6.0 0.00 0.00 0.00 64 1014.1
20210927040914 64 143 1.0 6.0 0.00 0.00 0.00 63 1014.1
20210927035908 65 147 2.0 5.0 0.00 0.00 0.00 63 1013.9
20210927035404 65 136 2.0 5.0 0.00 0.00 0.00 62 1013.9
20210927034848 66 148 1.0 4.0 0.00 0.00 0.00 62 1013.9
20210927034320 66 123 2.0 4.0 0.00 0.00 0.00 62 1013.8
20210927033916 66 155 2.0 3.0 0.00 0.00 0.00 61 1013.8
20210927033407 67 144 2.0 4.0 0.00 0.00 0.00 60 1013.7
20210927031901 68 171 3.0 4.0 0.00 0.00 0.00 57 1013.4
20210927031408 68 114 3.0 4.0 0.00 0.00 0.00 57 1013.4
20210927030908 68 209 3.0 4.0 0.00 0.00 0.00 56 1013.3
20210927030345 69 188 3.0 5.0 0.00 0.00 0.00 56 1013.3
20210927025829 69 220 2.0 6.0 0.00 0.00 0.00 55 1013.2
20210927025320 70 211 0.0 8.0 0.00 0.00 0.00 55 1013.2
20210927023910 71 184 2.0 7.0 0.00 0.00 0.00 53 1013.1
20210927021915 73 180 3.0 7.0 0.00 0.00 0.00 51 1012.9
20210927020408 74 173 4.0 7.0 0.00 0.00 0.00 48 1012.8
20210927015902 75 157 5.0 7.0 0.00 0.00 0.00 48 1012.8
20210927014907 76 204 1.0 5.0 0.00 0.00 0.00 47 1012.8
20210927012910 79 148 2.0 5.0 0.00 0.00 0.00 43 1012.5
20210927012408 79 203 2.0 5.0 0.00 0.00 0.00 42 1012.4
20210927011853 80 169 2.0 3.0 0.00 0.00 0.00 42 1012.3
20210927011342 80 184 1.0 3.0 0.00 0.00 0.00 41 1012.3
20210927010816 81 151 1.0 5.0 0.00 0.00 0.00 41 1012.4
20210927010416 81 148 4.0 5.0 0.00 0.00 0.00 41 1012.3
20210927005911 81 235 3.0 5.0 0.00 0.00 0.00 40 1012.4
20210927003912 83 160 2.0 4.0 0.00 0.00 0.00 39 1012.3
20210927003345 83 136 1.0 5.0 0.00 0.00 0.00 38 1012.3
20210927002826 83 188 2.0 5.0 0.00 0.00 0.00 38 1012.3
20210927002318 83 240 1.0 5.0 0.00 0.00 0.00 38 1012.2
20210927000410 83 204 5.0 9.0 0.00 0.00 0.00 38 1012.1
20210926235907 83 254 2.0 4.0 0.00 0.00 0.00 37 1012.2
20210926234910 84 155 3.0 6.0 0.00 0.00 0.00 37 1012.2
20210926234405 84 209 3.0 6.0 0.00 0.00 0.00 37 1012.3
20210926232907 84 300 2.0 5.0 0.00 0.00 0.00 36 1012.3
20210926231413 83 204 2.0 5.0 0.00 0.00 0.00 37 1012.4
20210926230405 83 172 4.0 5.0 0.00 0.00 0.00 36 1012.4
20210926224906 83 119 4.0 7.0 0.00 0.00 0.00 36 1012.5
20210926223856 83 242 3.0 5.0 0.00 0.00 0.00 36 1012.5
20210926222412 84 235 3.0 3.0 0.00 0.00 0.00 35 1012.6
20210926221414 83 222 2.0 3.0 0.00 0.00 0.00 37 1012.8
20210926220913 83 244 2.0 7.0 0.00 0.00 0.00 36 1012.8
20210926215913 82 176 3.0 6.0 0.00 0.00 0.00 37 1013.1
20210926214411 81 266 4.0 6.0 0.00 0.00 0.00 38 1013.2
20210926213915 81 226 2.0 4.0 0.00 0.00 0.00 38 1013.3
20210926212905 81 236 2.0 4.0 0.00 0.00 0.00 39 1013.4
20210926212404 81 140 1.0 4.0 0.00 0.00 0.00 39 1013.4
20210926210912 80 233 5.0 7.0 0.00 0.00 0.00 39 1013.4
20210926205911 80 171 5.0 9.0 0.00 0.00 0.00 41 1013.6
20210926205402 79 229 3.0 7.0 0.00 0.00 0.00 42 1013.7
20210926204843 79 130 4.0 9.0 0.00 0.00 0.00 42 1013.6
20210926204326 79 101 2.0 11.0 0.00 0.00 0.00 42 1013.6
20210926203822 79 236 3.0 11.0 0.00 0.00 0.00 41 1013.6
20210926203320 79 281 4.0 7.0 0.00 0.00 0.00 42 1013.6
20210926201913 78 188 0.0 6.0 0.00 0.00 0.00 45 1013.8
20210926201410 77 128 2.0 6.0 0.00 0.00 0.00 45 1013.8
20210926200404 77 133 4.0 6.0 0.00 0.00 0.00 45 1013.9
20210926195858 77 286 4.0 6.0 0.00 0.00 0.00 45 1013.9
20210926195347 76 128 2.0 6.0 0.00 0.00 0.00 47 1014.1
20210926194842 76 171 2.0 6.0 0.00 0.00 0.00 47 1014.1
20210926194327 76 171 6.0 6.0 0.00 0.00 0.00 47 1014.1
20210926193916 76 149 4.0 6.0 0.00 0.00 0.00 47 1014.2
20210926192909 75 282 1.0 4.0 0.00 0.00 0.00 49 1014.3
20210926192352 74 101 2.0 5.0 0.00 0.00 0.00 50 1014.3
20210926191849 74 157 2.0 7.0 0.00 0.00 0.00 49 1014.2
20210926191342 74 192 3.0 7.0 0.00 0.00 0.00 50 1014.5
20210926190826 74 163 2.0 5.0 0.00 0.00 0.00 51 1014.5
20210926190414 73 170 3.0 7.0 0.00 0.00 0.00 52 1014.6
20210926185403 72 214 3.0 5.0 0.00 0.00 0.00 54 1014.7
20210926184856 72 171 2.0 7.0 0.00 0.00 0.00 55 1014.7
20210926184402 71 148 2.0 7.0 0.00 0.00 0.00 55 1014.7
20210926183848 71 132 2.0 9.0 0.00 0.00 0.00 55 1014.7
20210926183355 71 355 2.0 11.0 0.00 0.00 0.00 56 1014.7
20210926182845 70 208 5.0 11.0 0.00 0.00 0.00 56 1014.7
20210926182339 70 142 5.0 11.0 0.00 0.00 0.00 57 1014.8
20210926181819 70 266 3.0 7.0 0.00 0.00 0.00 58 1014.8
20210926181409 70 112 4.0 7.0 0.00 0.00 0.00 58 1014.8
20210926180906 69 199 3.0 6.0 0.00 0.00 0.00 60 1014.8
20210926180346 69 144 4.0 7.0 0.00 0.00 0.00 60 1014.8
20210926175844 68 157 4.0 7.0 0.00 0.00 0.00 61 1014.9
20210926175334 68 128 3.0 7.0 0.00 0.00 0.00 62 1014.9
20210926174829 68 126 5.0 7.0 0.00 0.00 0.00 62 1014.9
20210926174329 67 168 1.0 6.0 0.00 0.00 0.00 63 1014.9
20210926173818 67 159 2.0 6.0 0.00 0.00 0.00 63 1014.9